Location: La Tine
(46.4708°N, 7.0525°E)
Time: 00:21:50
(UTC+00:00)

Meteor 1-24 Rocket - Pass Details

Date: 22 January 2021
Orbit: 791 x 926 km, 81.3° (Epoch: 03 March)

Event Time Altitude Azimuth Distance (km) Brightness Sun altitude
Exits shadow 04:19:10 16° 182° (S) 2,091 5.7 -28.5°
Drops below altitude 10° 04:20:13 10° 181° (S) 2,488 6.1 -28.3°
Sets 04:22:41 0° 179° (S) 3,442 6.9 -27.9°
